Regional Weather Roundup
Issued by NWS San Diego, CA

Current Version | Previous Version | Text Only | Print | Product List | Glossary On
Versions: 1 2 3 4 5 6 7 8 9 10 11 12 13 14 15 16 17 18 19 20 21 22 23 24 25 26 27 28 29 30 31 32 33 34 35 36 37 38 39 40 41 42 43 44 45 46 47 48
000 ASUS46 KSGX 050511 RWRSGX SAN DIEGO HOURLY WEATHER ROUNDUP NATIONAL WEATHER SERVICE SAN DIEGO CA 900 PM PST THU MAR 04 2021 NOTE: "FAIR" INDICATES FEW OR NO CLOUDS BELOW 12,000 FEET WITH NO SIGNIFICANT WEATHER AND/OR OBSTRUCTIONS TO VISIBILITY. CAZ042-043-060-061-PZZ750-775-050600- GREATER SAN DIEGO AREA CITY SKY/WX TMP DP RH WIND PRES REMARKS SAN DIEGO AP PTCLDY 58 50 75 N5 30.25S BROWN FIELD CLEAR 53 45 74 CALM 30.23S MIRAMAR MCAS CLEAR 56 51 84 N7 30.23F MONTGOMERY FLD CLEAR 55 49 80 N8 30.24S GILLESPIE FLD FAIR 52 46 82 W6 30.23S LEMON GROVE N/A 54 49 82 CALM 30.22S $$ NORTH SAN DIEGO COUNTY CITY SKY/WX TMP DP RH WIND PRES REMARKS CAMP PENDLETON CLEAR 51 46 83 CALM 30.24R OCEANSIDE AP CLEAR 51 48 89 NE3 30.23R OCEANSIDE HBR N/A 55 50 82 N3 30.31R VISTA N/A 52 47 84 CALM 30.23R CARLSBAD CLEAR 56 49 77 CALM 30.23S ENCINITAS N/A 53 49 89 CALM N/A LA JOLLA SCRIP N/A 56 51 84 CALM 30.24S FALLBROOK FAIR 50 48 93 CALM 30.24S ESCONDIDO N/A 55 47 74 W2 30.24R SAN MARCOS N/A 54 47 80 CALM 30.28R RANCHO BERNARD N/A 53 47 81 CALM 30.24S POWAY N/A 51 46 83 CALM 30.27S $$ EAST SAN DIEGO COUNTY CITY SKY/WX TMP DP RH WIND PRES REMARKS RAMONA CLEAR 45 43 93 NE3 30.24R LA MESA N/A 53 47 79 CALM 30.19S DESCANSO N N/A 43 41 93 NE2 30.27S $$ ORANGE COUNTY AND THE LOS ANGELES BASIN CITY SKY/WX TMP DP RH WIND PRES REMARKS JOHN WAYNE AP PTCLDY 58 45 62 CALM 30.25R LAGUNA BEACH N/A 52 47 83 N3 30.23S LAKE FOREST FR N/A 53 44 70 CALM 30.12S HUNTINGTON BCH N/A 51 47 84 CALM 30.25R LOS ALAMITOS CLEAR 54 50 85 CALM 30.25R FULLERTON CLEAR 56 45 66 CALM 30.24S LONG BEACH CLEAR 56 49 77 NW7 30.25R L.A. AP CLEAR 56 49 77 W9 30.25S L.A. DOWNTOWN CLEAR 56 49 77 CALM 30.24S $$ THE INLAND EMPIRE CITY SKY/WX TMP DP RH WIND PRES REMARKS CORONA CLEAR 54 45 71 CALM 30.26R UPLAND AP FAIR 55 41 58 CALM 30.24S CHINO CLEAR 54 44 69 CALM 30.26R ONTARIO CLEAR 56 42 59 SW3 30.24R RIVERSIDE AP CLEAR 56 45 66 CALM 30.25R MARCH ARB CLEAR 46 40 80 CALM 30.25R HEMET AP FAIR 50 45 81 E5 30.25S FRENCH VALLEY FAIR 52 48 87 CALM 30.25R $$ SAN BERNARDINO AND RIVERSIDE COUNTY MOUNTAINS CITY SKY/WX TMP DP RH WIND PRES REMARKS BIG BEAR AP N/A 27 14 59 CALM 30.36R BIG BEAR LAKE N/A 30 19 64 CALM 30.40R WRIGHTWOOD N/A 35 21 56 CALM 30.32R IDYLLWILD N/A 35 30 82 CALM 30.24R $$ SOUTHERN DESERT INCLUDING THE COACHELLA VALLEY CITY SKY/WX TMP DP RH WIND PRES REMARKS PALM SPRINGS CLEAR 61 33 35 N8 30.25R THOUSAND PALMS N/A 59 34 39 NW1 30.20R PALM DESERT N/A 60 39 46 CALM 32.17R INDIO N/A 60 36 40 CALM 30.22R THERMAL CLEAR 50 32 50 N3 30.22R BORREGO AP MOCLDY 50 41 71 CALM 30.23R OCOTILLO WELLS N/A 58 40 51 CALM 30.16R CANEBRAKE N/A 56 36 46 N2 30.21R BLYTHE CLEAR 58 31 35 NW7 30.21R IMPERIAL AP CLEAR 57 38 48 CALM 30.20R EL CENTRO NAS CLEAR 55 31 39 N5 30.23R YUMA AZ CLEAR 62 39 42 NW6 30.20R $$ UPPER DESERT CITY SKY/WX TMP DP RH WIND PRES REMARKS HESPERIA N/A 48 31 52 S3 30.13R PALMDALE CLEAR 50 32 50 S10 30.27R LANCASTER CLEAR 47 32 56 W7 30.27R EDWARDS AFB CLEAR 45 13 28 CALM 30.24R GRAY BUTTE AP FAIR 44 19 37 VRB6 30.25R DAGGETT CLEAR 49 12 22 W6 30.25R 29 PALMS N CLEAR 51 23 33 SE3 30.33R 29 PALMS JTNP N/A 54 20 26 CALM 30.23R NEEDLES CLEAR 62 27 26 VRB5 30.22R $$ REGIONAL REPORTS CITY SKY/WX TMP DP RH WIND PRES REMARKS SANTA BARBARA CLEAR 47 42 83 N3 30.26S SANDBERG CLEAR 51 32 48 CALM 30.30R LAS VEGAS NV CLEAR 58 26 29 SW3 30.25R PHOENIX AZ CLEAR 62 36 37 CALM 30.19R TIJUANA CLEAR 52 50 93 W3 30.26S ENSENADA NW N/A 56 32 40 CALM 30.19F $$ OFFSHORE ISLANDS CITY SKY/WX TMP DP RH WIND PRES REMARKS CATALINA ARPT CLEAR 50 42 74 NW10 30.26R SAN CLEMENTE I N/A 55 32 41 N12 30.26S SAN NICOLAS IS CLEAR 47 45 93 NW12 30.25F $$ MARINE AND OFFSHORE BUOY REPORTS STATION/POSITION SKY/WX TEMP WIND PRES VSBY SWELL AIR SEA DIR/SP/G HT/PER/DIR (F) (DEG/KT/KT) (MB) (MI) (FT/S/D) TANNER BANKS 56 350/ 12/ 14 1024.4S 5/310/13 S CLEMENTE BASIN 58 1023.7S 3/280/11 SAN NICOLAS IS. 55 N/A 3/300/12 SO. S. ROSA ISLA 53 56 1025.7R 5/290/12 W. S. BARBARA CH 310/ 10/ 12 1025.4R M. S. BARBARA CH 55 55 260/ 8/ 10 1025.5R 3/270/12 S. MONICA BASIN 56 320/ 12/ 14 1024.5S 3/240/ 8 S PEDRO CHANNEL 58 N/A 2/270/11 OCEANSIDE OFFSHR 58 N/A 2/200/15 TORREY PINES OTR 58 N/A 2/270/11 SAN DIEGO BAY 61 1023.7 IMPERIAL BEACH 58 N/A 2/260/13 POINT LOMA SOUTH 59 N/A 3/230/13 $$

USA.gov is the U.S. government's official web portal to all federal, state and local government web resources and services.